User: anonymous   Login
Location: Unspecified
(0.0000°N, 0.0000°E)
Time: 06:58:25
(UTC+00:00)
Language:

Gurwin Techsat 1B - Orbit

View from above orbital plane
View from above orbital plane
View from above satellite
View from above satellite

Ground track
Ground track

The orbit data is extracted from the following two-line orbital elements,

1 25397U 98043D   17202.91473511 -.00000024 +00000-0 +84888-5 0  9991
2 25397 098.6112 144.5226 0000188 205.9504 154.1665 14.23625167988517
Epoch (UTC): 21 July 2017 21:57:13
Eccentricity: 0.0000188
inclination: 98.6112°
perigee height: 813 km
apogee height: 813 km
right ascension of ascending node: 144.5226°
argument of perigee: 205.9504°
revolutions per day: 14.23625167
mean anomaly at epoch: 154.1665°
orbit number at epoch: 98851

The dashed part of the orbit path shows where the satellite is in the earth's shadow,  

DLR